www.pogodaiklimat.ru
Время
(UTC), дата
21 27.05
00 28.05
03 28.05
06 28.05
09 28.05
12 28.05
15 28.05
18 28.05
21 28.05
00 29.05
03 29.05
06 29.05
09 29.05
12 29.05
15 29.05
18 29.05
21 29.05
00 30.05
03 30.05
06 30.05
09 30.05
12 30.05
15 30.05
18 30.05
21 30.05
00 31.05
03 31.05
06 31.05
09 31.05
12 31.05
15 31.05
18 31.05
21 31.05
00 1.06
03 1.06
06 1.06
09 1.06
12 1.06
15 1.06
18 1.06
21 1.06
00 2.06
03 2.06
06 2.06
09 2.06
12 2.06
15 2.06
18 2.06
21 2.06
00 3.06
03 3.06
06 3.06
09 3.06
12 3.06
15 3.06
18 3.06
Ветер
(напр.,м/с)
Видим. Явления Облачность Т
(С)
Тd
(С)
f
(%)
Тe
(С)
Тes
(С)
Комфортность P
(гПа)
Po
(гПа)
Тmin
(С)
Tmax
(С)
R
(мм)
R24
(мм)
S
(см)
Ю 1-3
{5}
н/о ясно +20.8 +10.2 51 +24 +24 комфорт 1011.1 927.2
Ю 1-2
{5}
20 км ясно +16.1 +11.9 76 +17 +17 тепло 1011.9 926.7
С 1-2
{3}
20 км ясно +23.7 +12.3 49 +26 +35 жарко 1010.0 927.1 +15.2
СЗ 1-4
{4}
20 км 1/0
[Ac trans]
+26.9 +12.3 40 +28 +49 жарко 1008.8 926.8 +15.0
СЗ 2-6
{6}
20 км 1/1 1000 м
[Cu hum]
+28.9 +11.9 35 +30 +44 жарко 1007.8 926.4
С 1-5
{6}
20 км 3/1 1000 м
[Cu hum Ac trans]
+27.9 +9.7 32 +28 +32 жарко 1007.7 925.9
штиль 0-1
{6}
н/о 3/0
[Ci fib]
+23.0 +11.7 49 +25 +25 комфорт 1009.1 926.0 +30.0
З 1-1
{4}
н/о ясно +18.5 +10.3 59 +20 +20 тепло 1010.1 925.7 +30.0
штиль 0-2
{2}
н/о ясно +18.9 +10.4 58 +20 +20 тепло 1008.7 924.5
штиль 0
{2}
20 км 4/0
[Ci fib]
+14.8 +11.7 82 +15 +15 тепло 1010.1 924.7
ЮЗ 1-2
{3}
20 км 4/0
[Ci fib]
+21.0 +12.1 57 +24 +33 комфорт 1008.9 925.3 +13.7
З 1-4
{5}
20 км 8/1 1000 м
[Cu hum Ac trans Ci fib]
+25.4 +11.3 41 +27 +39 жарко 1007.4 925.0 +13.5
З 2-5
{6}
20 км 10/0
[Ac trans Ci fib]
+26.6 +9.2 33 +27 +35 жарко 1007.2 925.2
З 2-4
{6}
20 км 10/0
[Ac trans Ci fib]
+26.1 +12.3 42 +28 +30 жарко 1007.2 925.1
СВ 1-1
{5}
н/о 6/0
[Ac trans Ci fib]
+23.7 +10.7 44 +25 +25 комфорт 1008.4 925.5 +28.9
Ю 1-2
{4}
н/о 8/0
[Ci fib]
+20.6 +11.4 56 +24 +24 комфорт 1009.3 925.5 +28.9
Ю 1-1
{4}
н/о 6/0
[Ci fib]
+18.8 +10.9 60 +21 +21 комфорт 1009.0 924.7
ЮВ 1-2
{3}
20 км 8/0
[Ac lent Ci fib]
+16.9 +10.3 65 +18 +18 тепло 1009.9 925.1
С 1-3
{3}
20 км 6/1 1000 м
[Cu hum Ci fib]
+23.7 +12.1 48 +25 +33 комфорт 1008.9 926.0 +15.4
СЗ 2-4
{5}
20 км 6/3 1000 м
[Cu hum Ci fib]
+26.9 +10.2 35 +27 +39 жарко 1008.7 926.6 +15.2
З 2-4
{7}
20 км 3/1 1000 м
[Cu hum Ci fib]
+29.3 +5.8 23 +28 +42 жарко 1008.1 926.6
З 1-4
{8}
20 км 3/1 1000 м
[Cu hum Ci fib]
+29.2 +4.6 21 +28 +32 жарко 1008.8 927.2
штиль 0-2
{8}
н/о 3/0
[Ci fib]
+23.7 +9.0 39 +24 +24 комфорт 1010.8 927.7 +30.3
В 1-4
{5}
н/о ясно +21.3 +5.5 36 +22 +22 комфорт 1012.6 928.5 +30.3
штиль 0-2
{5}
н/о ясно +19.3 +6.5 43 +20 +20 тепло 1012.2 927.7
ЮВ 1-2
{4}
20 км ясно +18.3 +6.2 45 +20 +20 тепло 1011.9 927.2
ЮВ 2 20 км ясно +25.4 +8.6 34 +26 +34 жарко 1010.2 927.5
С 4-8
{9}
20 км ясно +29.6 +7.6 25 +29 +41 жарко 1008.1 926.7 +18.0
С 2-7
{9}
20 км 3/3 200 м
[Cu hum]
+31.4 +8.6 24 +30 +42 жарко 1006.4 925.6
С 2-6
{8}
20 км 4/3 1000 м
[Cu hum Ac trans]
+31.6 +9.0 25 +31 +34 жарко 1005.8 925.2
СВ 1-2
{8}
н/о 6/0
[Ac trans Ci fib]
+28.4 +10.2 32 +29 +29 жарко 1006.7 925.2 +34.0
Ю 1-4
{7}
н/о ясно +23.0 +9.3 42 +25 +25 комфорт 1008.6 925.5 +34.0
штиль 0-2
{5}
н/о ясно +20.9 +9.5 48 +22 +22 комфорт 1008.4 924.7
штиль 0
{4}
н/о н/о +16.8 +9.5 62 +17 +17 тепло 1009.9 924.9
штиль 0-2
{3}
20 км ясно +26.5 +10.0 35 +27 +38 жарко 1007.7 925.5 +15.3
СЗ 1-5
{5}
20 км 3/1 1000 м
[Cu hum Ci fib]
+29.3 +9.5 29 +29 +48 жарко 1006.4 925.1 +14.7
З 3-4
{6}
20 км 6/3 600 м
[Cb cap Ac trans Ci fib]
+32.2 +9.5 25 +32 +39 жарко 1005.1 924.6
З 4-7
{8}
20 км 10/4 600 м
[Cb cap Ac trans Ci fib]
+30.0 +10.4 30 +30 +31 жарко 1005.9 924.8
ЮВ 2-3
{10}
н/о 10/3 600 м
[Cb cap Ac trans Ci fib]
+26.6 +10.4 36 +27 +27 жарко 1007.2 925.2 +33.1
штиль 0-2
{10}
н/о 8/0
[Ci fib]
+22.2 +10.2 46 +24 +24 комфорт 1008.5 925.2 +33.1
СЗ 1-7
{7}
н/о 10/4 600 м
[Cb cap Ac trans]
+23.3 +10.0 43 +25 +25 комфорт 1007.6 924.6
ЮЗ 1-3
{7}
20 км {ливн. осадки} 10/6 600 м
[Cb cap Ac trans Ci fib]
+22.7 +10.5 46 +25 +25 комфорт 1007.7 924.6
З 1-2
{5}
20 км 10/4 600 м
[Cb cap Ac trans]
+24.1 +11.5 45 +26 +28 жарко 1008.5 925.8 +21.6
СЗ 1-5
{5}
20 км 10/5 1000 м
[Cu hum Ac trans Ci fib]
+29.9 +11.8 33 +31 +36 жарко 1007.2 926.1 +21.1 0.0
ЮЗ 1-8
{8}
20 км 10/5 600 м
[Cb cap Ac trans Ci fib]
+30.6 +10.0 28 +30 +35 жарко 1006.5 925.5
Ю 1-3
{8}
20 км 8/0
[Ac trans]
+30.5 +10.6 29 +30 +33 жарко 1006.2 925.3
В 1-3
{8}
н/о 8/0
[Ac trans Ci fib]
+26.9 +12.3 40 +28 +28 жарко 1008.1 926.2 +32.8
штиль 0-1
{8}
н/о 8/0
[Ac trans]
+23.8 +11.9 47 +25 +25 комфорт 1009.3 926.4 +32.8
Ю 1-4
{4}
н/о 6/0
[Ci fib]
+20.9 +10.0 50 +24 +24 комфорт 1009.7 925.9
Ю 2-3
{4}
20 км 8/0
[Ci fib]
+20.8 +7.7 43 +23 +23 комфорт 1009.5 925.7
В 1-3
{4}
20 км 3/0
[Ci fib]
+26.5 +7.7 30 +26 +35 жарко 1008.1 925.9 +19.6
В 3-6
{7}
20 км 3/1 1000 м
[Cu hum Ci fib]
+31.6 +6.7 21 +30 +43 жарко 1005.5 924.8 +19.1
СВ 2-8
{9}
20 км 4/3 1000 м
[Cu hum Ac trans]
+33.2 +5.0 17 +31 +41 жарко 1003.5 923.4
В 4-7
{9}
20 км в посл. час гроза 6/3 1000 м
[Cu hum Ac trans Ci fib]
+32.6 +7.1 20 +31 +32 жарко 1003.2 923.0
В 1-3
{9}
н/о 6/0
[Ci fib]
+27.7 +10.0 33 +28 +28 жарко 1004.3 922.7 +34.5
В 1-3
{7}
н/о 6/0
[Ci fib]
+23.4 +8.4 38 +25 +25 комфорт 1006.5 923.6 +34.5
Местоположение метеостанции Бишкек (город Бишкек, Киргизия): широта 42.85 долгота 74.53 высота над уровнем моря 760 м.
В архиве по умолчанию представлена погода в Бишкеке за последнюю неделю. Архивные данные за месяц целиком и за предыдущие месяцы, начиная с января 2011 года, Вы можете получить, выбрав интересующий диапазон дат из раскрывающегося списка и нажав кнопку "Найти!".
*Определитесь, кто Вы:
Внимание! Время в таблицах - всемирное. Для получения местного времени необходимо прибавить поправку, которая равна 6 ч.
Смотрите также архив погоды в соседних городах и на ближайших метеорологических станциях:
Партнеры нашего сайта:      
Пояснения к столбцам:
  • Ветер - указаны скорость ветра в м/с - средняя за 10 мин, порывы в срок и между сроками (в фигурных скобках) и направление, откуда дует ветер: С - северный,
  • СВ - северо-восточный, В - восточный, ЮВ - юго-восточный, Ю - южный, ЮЗ - юго-западный, З - западный, СЗ - северо-западный.
  • Видимость - горизонтальная дальность видимости в метрах или километрах. При видимости от 1 до 10 км при отсутствии осадков обычно наблюдается дымка, при ухудшении видимости до 1 км и менее - туман. В сухую погоду видимость может ухудшаться дымом, пылью или мглою.
  • Явления - указаны атмосферные явления, наблюдавшиеся в срок или в последний час перед сроком; фигурными скобками обозначены явления, наблюдавшиеся между сроками (за 1-3 часа до срока); квадратными скобками обозначены град или гололедные отложения с указанием их диаметра в мм.
  • Облачность - указаны через наклонную черту общая и нижняя облачность в баллах и высота нижней границы облаков в метрах; квадратными скобками обозначены формы облаков: Ci - перистые, Cs - перисто-слоистые, Cc - перисто-кучевые, Ac - высококучевые, As - высокослоистые, Sc - слоисто-кучевые, Ns - слоисто-дождевые, Cu - кучевые, Cb - кучево-дождевые. Подробнее классификацию облаков см. в Атласе облаков (PDF).
  • T - Температура воздуха - температура, измеренная на высоте 2 м над землей.
  • Td - Температура точки росы - температура, при понижении до которой содержащийся в воздухе водяной пар достигнет насыщения.
  • f - Относительная влажность воздуха - влажноcть воздуха, измеренная на высоте 2 м над землей.
  • Te - Эффективная температура - температура, которую ощущает одетый по сезону человек в тени. Характеристика душности погоды. При расчете учитывается влияние влажности воздуха и скорости ветра на теплоощущения человека.
  • Tes - Эффективная температура на солнце - температура, которую ощущает человек, с поправкой на солнечный нагрев. Характеристика знойности погоды. Зависит от высоты солнца над горизонтом, облачности и скорости ветра. Ночью, в пасмурную погоду, а также при ветре 12 м/с и более поправка равна нулю.
  • P - Атмосферное давление - приведенное к уровню моря атмосферное давление.
  • Po - Атмосферное давление - измеренное на уровне метеостанции атмосферное давление.
  • Tmin - Минимальная температура - минимум температуры воздуха на высоте 2 м над землей.
  • Tmax - Максимальная температура - максимум температуры воздуха на высоте 2 м над землей.
  • R - Количество осадков - Количество выпавших осадков за период времени, мм. При наведении курсора мыши на число - период времени, за который выпало указанное количество осадков.
  • R24 - Количество осадков - Количество выпавших осадков за 24 часа, мм.
  • S - Снежный покров - Высота снежного покрова, см. При наведении курсора мыши на число - состояние снежного покрова и степень покрытия местности в баллах.